Wetterdaten: Freitag, 22.01.2016
Datum Zeit Temp. A. Feuchte A. Luftdruck Regen Wind Richtung Richtung Sonnenschein ET UV Solar Taupunkt Windchill Windben Empfang
22.01.2016 00:00 -7,8 C 94 % 1031,5 hPa 0,0 l/m 4,4 km/h (1 Bft) NO 54 0 min 0,000 mm 0,0 UV-I 0 W/m -8,6 C -7,8 C 6,4 km/h (2 Bft) 98,29 %
22.01.2016 00:05 -7,8 C 93 % 1031,5 hPa 0,0 l/m 4,5 km/h (1 Bft) NO 52 0 min 0,000 mm 0,0 UV-I 0 W/m -8,7 C -7,8 C 6,4 km/h (2 Bft) 99,07 %
22.01.2016 00:10 -7,9 C 94 % 1031,6 hPa 0,0 l/m 5,1 km/h (1 Bft) NO 55 0 min 0,000 mm 0,0 UV-I 0 W/m -8,7 C -7,9 C 8,0 km/h (2 Bft) 98,37 %
22.01.2016 00:15 -7,9 C 94 % 1031,5 hPa 0,0 l/m 4,1 km/h (1 Bft) O-NO 59 0 min 0,000 mm 0,0 UV-I 0 W/m -8,7 C -7,9 C 6,4 km/h (2 Bft) 97,25 %
22.01.2016 00:20 -7,9 C 94 % 1031,6 hPa 0,0 l/m 4,1 km/h (1 Bft) NO 41 0 min 0,000 mm 0,0 UV-I 0 W/m -8,7 C -7,9 C 6,4 km/h (2 Bft) 96,77 %
22.01.2016 00:25 -8,0 C 94 % 1031,6 hPa 0,0 l/m 4,7 km/h (1 Bft) NO 53 0 min 0,000 mm 0,0 UV-I 0 W/m -8,8 C -8,0 C 8,0 km/h (2 Bft) 96,40 %
22.01.2016 00:30 -8,0 C 94 % 1031,5 hPa 0,0 l/m 5,6 km/h (1 Bft) NO 50 0 min 0,000 mm 0,0 UV-I 0 W/m -8,8 C -8,0 C 8,0 km/h (2 Bft) 97,64 %
22.01.2016 00:35 -8,1 C 93 % 1031,5 hPa 0,0 l/m 5,0 km/h (1 Bft) NO 51 0 min 0,000 mm 0,0 UV-I 0 W/m -9,0 C -8,1 C 8,0 km/h (2 Bft) 98,17 %
22.01.2016 00:40 -8,2 C 93 % 1031,4 hPa 0,0 l/m 5,3 km/h (1 Bft) O-NO 61 0 min 0,000 mm 0,0 UV-I 0 W/m -9,1 C -8,2 C 8,0 km/h (2 Bft) 97,56 %
22.01.2016 00:45 -8,4 C 93 % 1031,4 hPa 0,0 l/m 5,6 km/h (1 Bft) O-NO 68 0 min 0,000 mm 0,0 UV-I 0 W/m -9,3 C -8,4 C 8,0 km/h (2 Bft) 97,39 %
22.01.2016 00:50 -8,6 C 93 % 1031,5 hPa 0,0 l/m 5,2 km/h (1 Bft) NO 55 0 min 0,000 mm 0,0 UV-I 0 W/m -9,5 C -8,6 C 8,0 km/h (2 Bft) 96,43 %
22.01.2016 00:55 -8,8 C 92 % 1031,4 hPa 0,0 l/m 2,9 km/h (1 Bft) NO 48 0 min 0,000 mm 0,0 UV-I 0 W/m -9,9 C -8,8 C 4,8 km/h (1 Bft) 99,19 %
22.01.2016 01:00 -9,1 C 92 % 1031,4 hPa 0,0 l/m 2,6 km/h (1 Bft) NO 52 0 min 0,000 mm 0,0 UV-I 0 W/m -10,2 C -9,1 C 4,8 km/h (1 Bft) 99,17 %
22.01.2016 01:05 -9,4 C 92 % 1031,4 hPa 0,0 l/m 2,5 km/h (1 Bft) O-NO 57 0 min 0,000 mm 0,0 UV-I 0 W/m -10,5 C -9,4 C 3,2 km/h (1 Bft) 99,12 %
22.01.2016 01:10 -9,4 C 93 % 1031,3 hPa 0,0 l/m 3,1 km/h (1 Bft) O-NO 59 0 min 0,000 mm 0,0 UV-I 0 W/m -10,3 C -9,4 C 6,4 km/h (2 Bft) 99,11 %
22.01.2016 01:15 -9,3 C 93 % 1031,3 hPa 0,0 l/m 3,6 km/h (1 Bft) NO 45 0 min 0,000 mm 0,0 UV-I 0 W/m -10,2 C -9,3 C 6,4 km/h (2 Bft) 100,00 %
22.01.2016 01:20 -9,2 C 93 % 1031,4 hPa 0,0 l/m 4,4 km/h (1 Bft) NO 44 0 min 0,000 mm 0,0 UV-I 0 W/m -10,1 C -9,2 C 6,4 km/h (2 Bft) 98,25 %
22.01.2016 01:25 -9,2 C 93 % 1031,5 hPa 0,0 l/m 4,0 km/h (1 Bft) NO 44 0 min 0,000 mm 0,0 UV-I 0 W/m -10,1 C -9,2 C 6,4 km/h (2 Bft) 98,31 %
22.01.2016 01:30 -9,2 C 93 % 1031,4 hPa 0,0 l/m 4,7 km/h (1 Bft) NO 42 0 min 0,000 mm 0,0 UV-I 0 W/m -10,1 C -9,2 C 6,4 km/h (2 Bft) 96,43 %
22.01.2016 01:35 -9,2 C 93 % 1031,4 hPa 0,0 l/m 4,7 km/h (1 Bft) O-NO 67 0 min 0,000 mm 0,0 UV-I 0 W/m -10,1 C -9,2 C 8,0 km/h (2 Bft) 100,00 %
22.01.2016 01:40 -9,3 C 93 % 1031,4 hPa 0,0 l/m 2,1 km/h (1 Bft) O-NO 74 0 min 0,000 mm 0,0 UV-I 0 W/m -10,2 C -9,3 C 4,8 km/h (1 Bft) 100,00 %
22.01.2016 01:45 -9,5 C 92 % 1031,4 hPa 0,0 l/m 0,9 km/h (0 Bft) O-NO 74 0 min 0,000 mm 0,0 UV-I 0 W/m -10,6 C -9,5 C 3,2 km/h (1 Bft) 100,00 %
22.01.2016 01:50 -10,1 C 91 % 1031,3 hPa 0,0 l/m 0,8 km/h (0 Bft) O-NO 74 0 min 0,000 mm 0,0 UV-I 0 W/m -11,3 C -10,1 C 3,2 km/h (1 Bft) 100,00 %
22.01.2016 01:55 -10,2 C 91 % 1031,4 hPa 0,0 l/m 1,6 km/h (1 Bft) O-NO 74 0 min 0,000 mm 0,0 UV-I 0 W/m -11,4 C -10,2 C 3,2 km/h (1 Bft) 99,15 %
22.01.2016 02:00 -10,2 C 93 % 1031,4 hPa 0,0 l/m 2,4 km/h (1 Bft) O-NO 63 0 min 0,000 mm 0,0 UV-I 0 W/m -11,1 C -10,2 C 3,2 km/h (1 Bft) 100,00 %
22.01.2016 02:05 -9,9 C 93 % 1031,5 hPa 0,0 l/m 1,7 km/h (1 Bft) O-NO 63 0 min 0,000 mm 0,0 UV-I 0 W/m -10,8 C -9,9 C 3,2 km/h (1 Bft) 99,19 %
22.01.2016 02:10 -9,9 C 92 % 1031,6 hPa 0,0 l/m 1,7 km/h (1 Bft) O-NO 63 0 min 0,000 mm 0,0 UV-I 0 W/m -10,9 C -9,9 C 3,2 km/h (1 Bft) 99,10 %
22.01.2016 02:15 -10,1 C 92 % 1031,6 hPa 0,0 l/m 1,6 km/h (1 Bft) O-NO 63 0 min 0,000 mm 0,0 UV-I 0 W/m -11,1 C -10,1 C 3,2 km/h (1 Bft) 100,00 %
22.01.2016 02:20 -10,6 C 90 % 1031,7 hPa 0,0 l/m 0,2 km/h (0 Bft) O-NO 63 0 min 0,000 mm 0,0 UV-I 0 W/m -11,9 C -10,6 C 1,6 km/h (1 Bft) 98,31 %
22.01.2016 02:25 -11,3 C 89 % 1031,7 hPa 0,0 l/m 0,8 km/h (0 Bft) O-NO 63 0 min 0,000 mm 0,0 UV-I 0 W/m -12,7 C -11,3 C 3,2 km/h (1 Bft) 97,56 %
22.01.2016 02:30 -11,5 C 91 % 1031,7 hPa 0,0 l/m 1,4 km/h (1 Bft) O-NO 63 0 min 0,000 mm 0,0 UV-I 0 W/m -12,7 C -11,5 C 3,2 km/h (1 Bft) 96,33 %
22.01.2016 02:35 -11,3 C 92 % 1031,7 hPa 0,0 l/m 2,0 km/h (1 Bft) O-NO 63 0 min 0,000 mm 0,0 UV-I 0 W/m -12,3 C -11,3 C 3,2 km/h (1 Bft) 97,56 %
22.01.2016 02:40 -11,1 C 93 % 1031,7 hPa 0,0 l/m 1,8 km/h (1 Bft) O-NO 63 0 min 0,000 mm 0,0 UV-I 0 W/m -12,0 C -11,1 C 3,2 km/h (1 Bft) 98,11 %
22.01.2016 02:45 -11,6 C 90 % 1031,7 hPa 0,0 l/m 1,4 km/h (1 Bft) O-NO 63 0 min 0,000 mm 0,0 UV-I 0 W/m -12,9 C -11,6 C 3,2 km/h (1 Bft) 96,52 %
22.01.2016 02:50 -11,5 C 92 % 1031,7 hPa 0,0 l/m 2,0 km/h (1 Bft) O-NO 63 0 min 0,000 mm 0,0 UV-I 0 W/m -12,5 C -11,5 C 3,2 km/h (1 Bft) 97,73 %
22.01.2016 02:55 -11,7 C 90 % 1031,7 hPa 0,0 l/m 0,6 km/h (0 Bft) O-NO 63 0 min 0,000 mm 0,0 UV-I 0 W/m -13,0 C -11,7 C 3,2 km/h (1 Bft) 96,61 %
22.01.2016 03:00 -12,3 C 89 % 1031,6 hPa 0,0 l/m 0,5 km/h (0 Bft) O-NO 69 0 min 0,000 mm 0,0 UV-I 0 W/m -13,7 C -12,3 C 1,6 km/h (1 Bft) 97,32 %
22.01.2016 03:05 -12,7 C 89 % 1031,7 hPa 0,0 l/m 0,7 km/h (0 Bft) S-SW 194 0 min 0,000 mm 0,0 UV-I 0 W/m -14,1 C -12,7 C 3,2 km/h (1 Bft) 97,30 %
22.01.2016 03:10 -13,1 C 89 % 1031,7 hPa 0,0 l/m 2,8 km/h (1 Bft) S-SW 207 0 min 0,000 mm 0,0 UV-I 0 W/m -14,5 C -13,1 C 4,8 km/h (1 Bft) 96,85 %
22.01.2016 03:15 -13,2 C 90 % 1031,8 hPa 0,0 l/m 2,2 km/h (1 Bft) S-SW 207 0 min 0,000 mm 0,0 UV-I 0 W/m -14,5 C -13,2 C 3,2 km/h (1 Bft) 97,32 %
22.01.2016 03:20 -13,2 C 90 % 1031,8 hPa 0,0 l/m 1,6 km/h (1 Bft) S-SW 207 0 min 0,000 mm 0,0 UV-I 0 W/m -14,5 C -13,2 C 3,2 km/h (1 Bft) 97,50 %
22.01.2016 03:25 -13,2 C 90 % 1031,7 hPa 0,0 l/m 0,8 km/h (0 Bft) S-SW 207 0 min 0,000 mm 0,0 UV-I 0 W/m -14,5 C -13,2 C 1,6 km/h (1 Bft) 97,25 %
22.01.2016 03:30 -13,1 C 91 % 1031,6 hPa 0,0 l/m 1,5 km/h (1 Bft) S-SW 204 0 min 0,000 mm 0,0 UV-I 0 W/m -14,2 C -13,1 C 3,2 km/h (1 Bft) 99,19 %
22.01.2016 03:35 -13,0 C 91 % 1031,7 hPa 0,0 l/m 1,3 km/h (1 Bft) S-SW 204 0 min 0,000 mm 0,0 UV-I 0 W/m -14,2 C -13,0 C 3,2 km/h (1 Bft) 98,21 %
22.01.2016 03:40 -12,9 C 91 % 1031,6 hPa 0,0 l/m 0,3 km/h (0 Bft) S-SW 204 0 min 0,000 mm 0,0 UV-I 0 W/m -14,1 C -12,9 C 1,6 km/h (1 Bft) 98,26 %
22.01.2016 03:45 -13,0 C 91 % 1031,6 hPa 0,0 l/m 1,5 km/h (1 Bft) S-SW 196 0 min 0,000 mm 0,0 UV-I 0 W/m -14,2 C -13,0 C 3,2 km/h (1 Bft) 98,37 %
22.01.2016 03:50 -12,9 C 91 % 1031,6 hPa 0,0 l/m 1,8 km/h (1 Bft) S 191 0 min 0,000 mm 0,0 UV-I 0 W/m -14,1 C -12,9 C 3,2 km/h (1 Bft) 99,17 %
22.01.2016 03:55 -13,0 C 91 % 1031,7 hPa 0,0 l/m 1,5 km/h (1 Bft) S 191 0 min 0,000 mm 0,0 UV-I 0 W/m -14,2 C -13,0 C 3,2 km/h (1 Bft) 100,00 %
22.01.2016 04:00 -13,1 C 90 % 1031,7 hPa 0,0 l/m 0,2 km/h (0 Bft) S 191 0 min 0,000 mm 0,0 UV-I 0 W/m -14,4 C -13,1 C 1,6 km/h (1 Bft) 97,56 %
22.01.2016 04:05 -13,3 C 90 % 1031,7 hPa 0,0 l/m 0,2 km/h (0 Bft) S 191 0 min 0,000 mm 0,0 UV-I 0 W/m -14,6 C -13,3 C 1,6 km/h (1 Bft) 99,03 %
22.01.2016 04:10 -13,6 C 90 % 1031,8 hPa 0,0 l/m 0,6 km/h (0 Bft) S 191 0 min 0,000 mm 0,0 UV-I 0 W/m -14,9 C -13,6 C 1,6 km/h (1 Bft) 100,00 %
22.01.2016 04:15 -13,7 C 90 % 1031,9 hPa 0,0 l/m 1,5 km/h (1 Bft) S 191 0 min 0,000 mm 0,0 UV-I 0 W/m -15,0 C -13,7 C 3,2 km/h (1 Bft) 100,00 %
22.01.2016 04:20 -13,8 C 89 % 1031,9 hPa 0,0 l/m 1,4 km/h (1 Bft) S 191 0 min 0,000 mm 0,0 UV-I 0 W/m -15,2 C -13,8 C 3,2 km/h (1 Bft) 100,00 %
22.01.2016 04:25 -14,0 C 89 % 1031,9 hPa 0,0 l/m 1,8 km/h (1 Bft) S-SW 192 0 min 0,000 mm 0,0 UV-I 0 W/m -15,4 C -14,0 C 3,2 km/h (1 Bft) 98,37 %
22.01.2016 04:30 -14,2 C 89 % 1032,0 hPa 0,0 l/m 3,4 km/h (1 Bft) S-SW 192 0 min 0,000 mm 0,0 UV-I 0 W/m -15,6 C -14,2 C 4,8 km/h (1 Bft) 97,32 %
22.01.2016 04:35 -14,1 C 90 % 1032,0 hPa 0,0 l/m 2,8 km/h (1 Bft) S-SW 192 0 min 0,000 mm 0,0 UV-I 0 W/m -15,4 C -14,1 C 4,8 km/h (1 Bft) 100,00 %
22.01.2016 04:40 -14,1 C 90 % 1032,1 hPa 0,0 l/m 2,0 km/h (1 Bft) S 169 0 min 0,000 mm 0,0 UV-I 0 W/m -15,4 C -14,1 C 3,2 km/h (1 Bft) 99,20 %
22.01.2016 04:45 -14,0 C 90 % 1032,1 hPa 0,0 l/m 1,6 km/h (1 Bft) S 169 0 min 0,000 mm 0,0 UV-I 0 W/m -15,3 C -14,0 C 3,2 km/h (1 Bft) 100,00 %
22.01.2016 04:50 -13,9 C 90 % 1032,1 hPa 0,0 l/m 1,5 km/h (1 Bft) S 169 0 min 0,000 mm 0,0 UV-I 0 W/m -15,2 C -13,9 C 3,2 km/h (1 Bft) 98,37 %
22.01.2016 04:55 -14,1 C 90 % 1032,2 hPa 0,0 l/m 1,7 km/h (1 Bft) S-SW 198 0 min 0,000 mm 0,0 UV-I 0 W/m -15,4 C -14,1 C 3,2 km/h (1 Bft) 99,13 %
22.01.2016 05:00 -14,1 C 90 % 1032,2 hPa 0,0 l/m 2,3 km/h (1 Bft) S-SW 206 0 min 0,000 mm 0,0 UV-I 0 W/m -15,4 C -14,1 C 3,2 km/h (1 Bft) 100,00 %
22.01.2016 05:05 -13,9 C 91 % 1032,1 hPa 0,0 l/m 2,4 km/h (1 Bft) S-SW 200 0 min 0,000 mm 0,0 UV-I 0 W/m -15,0 C -13,9 C 3,2 km/h (1 Bft) 100,00 %
22.01.2016 05:10 -13,7 C 91 % 1032,2 hPa 0,0 l/m 1,4 km/h (1 Bft) S-SW 199 0 min 0,000 mm 0,0 UV-I 0 W/m -14,8 C -13,7 C 3,2 km/h (1 Bft) 96,52 %
22.01.2016 05:15 -13,6 C 91 % 1032,1 hPa 0,0 l/m 1,3 km/h (1 Bft) S-SW 199 0 min 0,000 mm 0,0 UV-I 0 W/m -14,7 C -13,6 C 1,6 km/h (1 Bft) 97,39 %
22.01.2016 05:20 -13,4 C 91 % 1032,2 hPa 0,0 l/m 0,7 km/h (0 Bft) S-SW 199 0 min 0,000 mm 0,0 UV-I 0 W/m -14,5 C -13,4 C 1,6 km/h (1 Bft) 97,44 %
22.01.2016 05:25 -13,4 C 91 % 1032,3 hPa 0,0 l/m 1,4 km/h (1 Bft) S-SW 199 0 min 0,000 mm 0,0 UV-I 0 W/m -14,5 C -13,4 C 3,2 km/h (1 Bft) 96,69 %
22.01.2016 05:30 -13,4 C 91 % 1032,3 hPa 0,0 l/m 1,5 km/h (1 Bft) S-SW 199 0 min 0,000 mm 0,0 UV-I 0 W/m -14,5 C -13,4 C 3,2 km/h (1 Bft) 96,40 %
22.01.2016 05:35 -13,3 C 91 % 1032,3 hPa 0,0 l/m 0,9 km/h (0 Bft) S-SW 199 0 min 0,000 mm 0,0 UV-I 0 W/m -14,4 C -13,3 C 1,6 km/h (1 Bft) 96,15 %
22.01.2016 05:40 -13,3 C 91 % 1032,4 hPa 0,0 l/m 1,2 km/h (1 Bft) S-SW 199 0 min 0,000 mm 0,0 UV-I 0 W/m -14,4 C -13,3 C 1,6 km/h (1 Bft) 96,23 %
22.01.2016 05:45 -13,3 C 91 % 1032,4 hPa 0,0 l/m 1,5 km/h (1 Bft) S-SW 198 0 min 0,000 mm 0,0 UV-I 0 W/m -14,4 C -13,3 C 3,2 km/h (1 Bft) 97,50 %
22.01.2016 05:50 -13,2 C 91 % 1032,5 hPa 0,0 l/m 1,4 km/h (1 Bft) S-SW 198 0 min 0,000 mm 0,0 UV-I 0 W/m -14,3 C -13,2 C 3,2 km/h (1 Bft) 98,35 %
22.01.2016 05:55 -13,1 C 91 % 1032,4 hPa 0,0 l/m 1,4 km/h (1 Bft) S-SW 198 0 min 0,000 mm 0,0 UV-I 0 W/m -14,2 C -13,1 C 3,2 km/h (1 Bft) 98,25 %
22.01.2016 06:00 -13,1 C 91 % 1032,5 hPa 0,0 l/m 0,5 km/h (0 Bft) S-SW 198 0 min 0,000 mm 0,0 UV-I 0 W/m -14,2 C -13,1 C 1,6 km/h (1 Bft) 100,00 %
22.01.2016 06:05 -13,0 C 91 % 1032,5 hPa 0,0 l/m 0,1 km/h (0 Bft) S-SW 198 0 min 0,000 mm 0,0 UV-I 0 W/m -14,2 C -13,0 C 1,6 km/h (1 Bft) 98,31 %
22.01.2016 06:10 -13,0 C 91 % 1032,5 hPa 0,0 l/m 0,0 km/h (0 Bft) S-SW 198 0 min 0,000 mm 0,0 UV-I 0 W/m -14,2 C -13,0 C 1,6 km/h (1 Bft) 99,10 %
22.01.2016 06:15 -13,0 C 91 % 1032,6 hPa 0,0 l/m 0,2 km/h (0 Bft) S-SW 198 0 min 0,000 mm 0,0 UV-I 0 W/m -14,2 C -13,0 C 1,6 km/h (1 Bft) 83,47 %
22.01.2016 06:20 -13,1 C 90 % 1032,6 hPa 0,0 l/m 0,1 km/h (0 Bft) S-SW 198 0 min 0,000 mm 0,0 UV-I 0 W/m -14,4 C -13,1 C 1,6 km/h (1 Bft) 98,33 %
22.01.2016 06:25 -13,2 C 90 % 1032,7 hPa 0,0 l/m 0,0 km/h (0 Bft) S-SW 198 0 min 0,000 mm 0,0 UV-I 0 W/m -14,5 C -13,2 C 0,0 km/h (0 Bft) 100,00 %
22.01.2016 06:30 -13,3 C 90 % 1032,7 hPa 0,0 l/m 0,0 km/h (0 Bft) S-SW 198 0 min 0,000 mm 0,0 UV-I 0 W/m -14,6 C -13,3 C 1,6 km/h (1 Bft) 98,31 %
22.01.2016 06:35 -13,4 C 90 % 1032,8 hPa 0,0 l/m 0,0 km/h (0 Bft) S-SW 198 0 min 0,000 mm 0,0 UV-I 0 W/m -14,7 C -13,4 C 0,0 km/h (0 Bft) 98,29 %
22.01.2016 06:40 -13,4 C 90 % 1032,8 hPa 0,0 l/m 0,0 km/h (0 Bft) S-SW 198 0 min 0,000 mm 0,0 UV-I 0 W/m -14,7 C -13,4 C 1,6 km/h (1 Bft) 100,00 %
22.01.2016 06:45 -13,5 C 90 % 1032,8 hPa 0,0 l/m 0,0 km/h (0 Bft) S-SW 198 0 min 0,000 mm 0,0 UV-I 0 W/m -14,8 C -13,5 C 0,0 km/h (0 Bft) 99,08 %
22.01.2016 06:50 -13,7 C 90 % 1032,9 hPa 0,0 l/m 0,7 km/h (0 Bft) S-SW 198 0 min 0,000 mm 0,0 UV-I 0 W/m -15,0 C -13,7 C 1,6 km/h (1 Bft) 97,44 %
22.01.2016 06:55 -13,8 C 90 % 1032,9 hPa 0,0 l/m 0,0 km/h (0 Bft) S-SW 198 0 min 0,000 mm 0,0 UV-I 0 W/m -15,1 C -13,8 C 0,0 km/h (0 Bft) 100,00 %
22.01.2016 07:00 -13,9 C 89 % 1032,9 hPa 0,0 l/m 0,2 km/h (0 Bft) S-SW 198 0 min 0,000 mm 0,0 UV-I 0 W/m -15,3 C -13,9 C 1,6 km/h (1 Bft) 98,37 %
22.01.2016 07:05 -13,9 C 90 % 1033,0 hPa 0,0 l/m 0,7 km/h (0 Bft) S-SW 198 0 min 0,000 mm 0,0 UV-I 0 W/m -15,2 C -13,9 C 1,6 km/h (1 Bft) 100,00 %
22.01.2016 07:10 -14,1 C 89 % 1033,0 hPa 0,0 l/m 0,0 km/h (0 Bft) S-SW 198 0 min 0,000 mm 0,0 UV-I 0 W/m -15,5 C -14,1 C 1,6 km/h (1 Bft) 100,00 %
22.01.2016 07:15 -14,2 C 89 % 1033,0 hPa 0,0 l/m 0,6 km/h (0 Bft) S-SW 198 0 min 0,000 mm 0,0 UV-I 0 W/m -15,6 C -14,2 C 1,6 km/h (1 Bft) 99,10 %
22.01.2016 07:20 -14,2 C 90 % 1033,1 hPa 0,0 l/m 0,6 km/h (0 Bft) S-SW 198 0 min 0,000 mm 0,0 UV-I 0 W/m -15,5 C -14,2 C 1,6 km/h (1 Bft) 97,58 %
22.01.2016 07:25 -14,1 C 90 % 1033,1 hPa 0,0 l/m 0,5 km/h (0 Bft) S-SW 198 0 min 0,000 mm 0,0 UV-I 0 W/m -15,4 C -14,1 C 1,6 km/h (1 Bft) 98,21 %
22.01.2016 07:30 -14,0 C 90 % 1033,3 hPa 0,0 l/m 0,7 km/h (0 Bft) S-SW 198 0 min 0,000 mm 0,0 UV-I 0 W/m -15,3 C -14,0 C 1,6 km/h (1 Bft) 97,37 %
22.01.2016 07:35 -14,0 C 90 % 1033,3 hPa 0,0 l/m 0,6 km/h (0 Bft) S-SW 201 0 min 0,000 mm 0,0 UV-I 0 W/m -15,3 C -14,0 C 1,6 km/h (1 Bft) 81,36 %
22.01.2016 07:40 -13,9 C 90 % 1033,4 hPa 0,0 l/m 0,7 km/h (0 Bft) SW 214 0 min 0,000 mm 0,0 UV-I 0 W/m -15,2 C -13,9 C 1,6 km/h (1 Bft) 97,25 %
22.01.2016 07:45 -13,8 C 91 % 1033,5 hPa 0,0 l/m 0,8 km/h (0 Bft) S-SW 205 0 min 0,000 mm 0,0 UV-I 2 W/m -14,9 C -13,8 C 1,6 km/h (1 Bft) 97,62 %
22.01.2016 07:50 -13,7 C 91 % 1033,5 hPa 0,0 l/m 0,6 km/h (0 Bft) S-SW 193 0 min 0,000 mm 0,0 UV-I 5 W/m -14,8 C -13,7 C 1,6 km/h (1 Bft) 98,21 %
22.01.2016 07:55 -13,6 C 91 % 1033,6 hPa 0,0 l/m 0,2 km/h (0 Bft) S-SW 193 0 min 0,000 mm 0,0 UV-I 8 W/m -14,7 C -13,6 C 1,6 km/h (1 Bft) 97,56 %
22.01.2016 08:00 -13,4 C 91 % 1033,6 hPa 0,0 l/m 0,3 km/h (0 Bft) S-SW 193 0 min 0,000 mm 0,0 UV-I 11 W/m -14,5 C -13,4 C 1,6 km/h (1 Bft) 96,52 %
22.01.2016 08:05 -13,3 C 91 % 1033,7 hPa 0,0 l/m 0,8 km/h (0 Bft) S-SW 192 0 min 0,000 mm 0,0 UV-I 13 W/m -14,4 C -13,3 C 1,6 km/h (1 Bft) 99,11 %
22.01.2016 08:10 -13,2 C 91 % 1033,8 hPa 0,0 l/m 0,6 km/h (0 Bft) S-SW 192 0 min 0,000 mm 0,0 UV-I 16 W/m -14,3 C -13,2 C 1,6 km/h (1 Bft) 99,19 %
22.01.2016 08:15 -13,2 C 91 % 1033,8 hPa 0,0 l/m 0,9 km/h (0 Bft) S-SW 192 0 min 0,000 mm 0,0 UV-I 20 W/m -14,3 C -13,2 C 1,6 km/h (1 Bft) 100,00 %
22.01.2016 08:20 -13,1 C 91 % 1033,9 hPa 0,0 l/m 0,9 km/h (0 Bft) S-SW 192 0 min 0,000 mm 0,0 UV-I 23 W/m -14,2 C -13,1 C 3,2 km/h (1 Bft) 100,00 %
22.01.2016 08:25 -13,1 C 91 % 1033,9 hPa 0,0 l/m 0,9 km/h (0 Bft) S-SW 192 0 min 0,000 mm 0,0 UV-I 28 W/m -14,2 C -13,1 C 1,6 km/h (1 Bft) 99,15 %
22.01.2016 08:30 -13,1 C 90 % 1034,0 hPa 0,0 l/m 0,2 km/h (0 Bft) S-SW 192 0 min 0,000 mm 0,0 UV-I 32 W/m -14,4 C -13,1 C 1,6 km/h (1 Bft) 100,00 %
22.01.2016 08:35 -13,2 C 90 % 1033,9 hPa 0,0 l/m 0,7 km/h (0 Bft) S-SW 192 0 min 0,000 mm 0,0 UV-I 33 W/m -14,5 C -13,2 C 1,6 km/h (1 Bft) 99,19 %
22.01.2016 08:40 -13,2 C 90 % 1034,0 hPa 0,0 l/m 0,9 km/h (0 Bft) S-SW 192 0 min 0,000 mm 0,0 UV-I 38 W/m -14,5 C -13,2 C 3,2 km/h (1 Bft) 99,13 %
22.01.2016 08:45 -13,2 C 90 % 1033,9 hPa 0,0 l/m 0,2 km/h (0 Bft) S-SW 192 0 min 0,000 mm 0,0 UV-I 48 W/m -14,5 C -13,2 C 1,6 km/h (1 Bft) 99,03 %
22.01.2016 08:50 -13,1 C 91 % 1034,0 hPa 0,0 l/m 0,3 km/h (0 Bft) S-SW 192 0 min 0,000 mm 0,0 UV-I 65 W/m -14,2 C -13,1 C 1,6 km/h (1 Bft) 99,24 %
22.01.2016 08:55 -12,9 C 91 % 1034,1 hPa 0,0 l/m 0,9 km/h (0 Bft) S-SW 192 0 min 0,000 mm 0,0 UV-I 70 W/m -14,1 C -12,9 C 1,6 km/h (1 Bft) 98,21 %
22.01.2016 09:00 -12,9 C 90 % 1034,1 hPa 0,0 l/m 0,7 km/h (0 Bft) S-SW 192 0 min 0,000 mm 0,0 UV-I 60 W/m -14,2 C -12,9 C 1,6 km/h (1 Bft) 98,21 %
22.01.2016 09:05 -12,9 C 91 % 1034,1 hPa 0,0 l/m 0,3 km/h (0 Bft) S-SW 192 0 min 0,000 mm 0,0 UV-I 75 W/m -14,1 C -12,9 C 1,6 km/h (1 Bft) 99,21 %
22.01.2016 09:10 -12,8 C 90 % 1034,2 hPa 0,0 l/m 1,6 km/h (1 Bft) S-SW 192 0 min 0,000 mm 0,0 UV-I 84 W/m -14,1 C -12,8 C 3,2 km/h (1 Bft) 100,00 %
22.01.2016 09:15 -12,7 C 91 % 1034,2 hPa 0,0 l/m 0,8 km/h (0 Bft) S-SW 192 0 min 0,000 mm 0,0 UV-I 94 W/m -13,9 C -12,7 C 1,6 km/h (1 Bft) 100,00 %
22.01.2016 09:20 -12,6 C 91 % 1034,3 hPa 0,0 l/m 0,5 km/h (0 Bft) S-SW 192 0 min 0,000 mm 0,0 UV-I 103 W/m -13,8 C -12,6 C 1,6 km/h (1 Bft) 98,31 %
22.01.2016 09:25 -12,6 C 91 % 1034,4 hPa 0,0 l/m 0,5 km/h (0 Bft) S-SW 197 0 min 0,000 mm 0,0 UV-I 117 W/m -13,8 C -12,6 C 1,6 km/h (1 Bft) 96,52 %
22.01.2016 09:30 -12,4 C 91 % 1034,4 hPa 0,0 l/m 0,2 km/h (0 Bft) S-SW 197 5 min 0,000 mm 0,0 UV-I 138 W/m -13,6 C -12,4 C 1,6 km/h (1 Bft) 97,50 %
22.01.2016 09:35 -12,3 C 91 % 1034,5 hPa 0,0 l/m 0,9 km/h (0 Bft) S-SW 197 5 min 0,000 mm 0,0 UV-I 154 W/m -13,5 C -12,3 C 1,6 km/h (1 Bft) 97,32 %
22.01.2016 09:40 -12,3 C 91 % 1034,5 hPa 0,0 l/m 0,9 km/h (0 Bft) S-SW 199 5 min 0,000 mm 0,0 UV-I 164 W/m -13,5 C -12,3 C 1,6 km/h (1 Bft) 99,15 %
22.01.2016 09:45 -12,3 C 91 % 1034,5 hPa 0,0 l/m 0,3 km/h (0 Bft) S-SW 199 5 min 0,000 mm 0,0 UV-I 176 W/m -13,5 C -12,3 C 1,6 km/h (1 Bft) 99,19 %
22.01.2016 09:50 -12,1 C 91 % 1034,5 hPa 0,0 l/m 0,0 km/h (0 Bft) S-SW 199 5 min 0,000 mm 0,0 UV-I 187 W/m -13,3 C -12,1 C 1,6 km/h (1 Bft) 99,11 %
22.01.2016 09:55 -12,0 C 91 % 1034,5 hPa 0,0 l/m 0,0 km/h (0 Bft) S-SW 199 5 min 0,000 mm 0,0 UV-I 195 W/m -13,2 C -12,0 C 0,0 km/h (0 Bft) 100,00 %
22.01.2016 10:00 -11,8 C 91 % 1034,6 hPa 0,0 l/m 0,0 km/h (0 Bft) S-SW 199 5 min 0,025 mm 0,0 UV-I 204 W/m -13,0 C -11,8 C 0,0 km/h (0 Bft) 100,00 %
22.01.2016 10:05 -11,7 C 91 % 1034,5 hPa 0,0 l/m 0,0 km/h (0 Bft) S-SW 199 5 min 0,000 mm 0,0 UV-I 218 W/m -12,9 C -11,7 C 0,0 km/h (0 Bft) 99,07 %
22.01.2016 10:10 -11,4 C 92 % 1034,5 hPa 0,0 l/m 0,0 km/h (0 Bft) S-SW 199 5 min 0,000 mm 0,0 UV-I 247 W/m -12,4 C -11,4 C 0,0 km/h (0 Bft) 96,83 %
22.01.2016 10:15 -11,2 C 92 % 1034,6 hPa 0,0 l/m 0,0 km/h (0 Bft) S-SW 199 5 min 0,000 mm 0,5 UV-I 309 W/m -12,2 C -11,2 C 0,0 km/h (0 Bft) 99,08 %
22.01.2016 10:20 -10,8 C 92 % 1034,6 hPa 0,0 l/m 0,0 km/h (0 Bft) S-SW 199 5 min 0,000 mm 0,5 UV-I 327 W/m -11,8 C -10,8 C 0,0 km/h (0 Bft) 98,37 %
22.01.2016 10:25 -10,7 C 92 % 1034,6 hPa 0,0 l/m 0,0 km/h (0 Bft) S-SW 199 5 min 0,000 mm 0,5 UV-I 313 W/m -11,7 C -10,7 C 0,0 km/h (0 Bft) 97,32 %
22.01.2016 10:30 -10,5 C 92 % 1034,7 hPa 0,0 l/m 0,0 km/h (0 Bft) S-SW 199 5 min 0,000 mm 0,5 UV-I 321 W/m -11,5 C -10,5 C 0,0 km/h (0 Bft) 98,26 %
22.01.2016 10:35 -10,3 C 92 % 1034,7 hPa 0,0 l/m 0,0 km/h (0 Bft) S-SW 199 5 min 0,000 mm 0,6 UV-I 327 W/m -11,3 C -10,3 C 0,0 km/h (0 Bft) 97,50 %
22.01.2016 10:40 -10,2 C 92 % 1034,7 hPa 0,0 l/m 0,0 km/h (0 Bft) S-SW 199 5 min 0,000 mm 0,6 UV-I 336 W/m -11,2 C -10,2 C 0,0 km/h (0 Bft) 99,19 %
22.01.2016 10:45 -10,2 C 92 % 1034,7 hPa 0,0 l/m 0,0 km/h (0 Bft) S-SW 199 5 min 0,000 mm 0,6 UV-I 348 W/m -11,2 C -10,2 C 0,0 km/h (0 Bft) 99,10 %
22.01.2016 10:50 -10,1 C 92 % 1034,7 hPa 0,0 l/m 0,0 km/h (0 Bft) S-SW 199 5 min 0,000 mm 0,6 UV-I 353 W/m -11,1 C -10,1 C 0,0 km/h (0 Bft) 99,15 %
22.01.2016 10:55 -9,9 C 92 % 1034,7 hPa 0,0 l/m 0,0 km/h (0 Bft) S-SW 199 5 min 0,000 mm 0,7 UV-I 362 W/m -10,9 C -9,9 C 0,0 km/h (0 Bft) 100,00 %
22.01.2016 11:00 -9,9 C 92 % 1034,7 hPa 0,0 l/m 0,0 km/h (0 Bft) S-SW 199 5 min 0,051 mm 0,7 UV-I 368 W/m -10,9 C -9,9 C 0,0 km/h (0 Bft) 99,15 %
22.01.2016 11:05 -9,8 C 92 % 1034,6 hPa 0,0 l/m 0,6 km/h (0 Bft) S-SW 199 5 min 0,000 mm 0,7 UV-I 374 W/m -10,8 C -9,8 C 1,6 km/h (1 Bft) 100,00 %
22.01.2016 11:10 -9,6 C 93 % 1034,5 hPa 0,0 l/m 0,3 km/h (0 Bft) SO 138 5 min 0,000 mm 0,7 UV-I 378 W/m -10,5 C -9,6 C 1,6 km/h (1 Bft) 100,00 %
22.01.2016 11:15 -9,1 C 93 % 1034,5 hPa 0,0 l/m 2,5 km/h (1 Bft) O-NO 61 5 min 0,000 mm 0,8 UV-I 382 W/m -10,0 C -9,1 C 4,8 km/h (1 Bft) 99,15 %
22.01.2016 11:20 -8,7 C 93 % 1034,5 hPa 0,0 l/m 3,2 km/h (1 Bft) NO 41 5 min 0,000 mm 0,8 UV-I 387 W/m -9,6 C -8,7 C 4,8 km/h (1 Bft) 98,35 %
22.01.2016 11:25 -8,5 C 93 % 1034,4 hPa 0,0 l/m 3,3 km/h (1 Bft) NO 54 5 min 0,000 mm 0,8 UV-I 387 W/m -9,4 C -8,5 C 4,8 km/h (1 Bft) 95,73 %
22.01.2016 11:30 -8,4 C 93 % 1034,4 hPa 0,0 l/m 4,1 km/h (1 Bft) O-NO 63 5 min 0,000 mm 0,8 UV-I 393 W/m -9,3 C -8,4 C 8,0 km/h (2 Bft) 98,21 %
22.01.2016 11:35 -8,3 C 93 % 1034,4 hPa 0,0 l/m 5,5 km/h (1 Bft) NO 53 5 min 0,000 mm 0,8 UV-I 373 W/m -9,2 C -8,3 C 8,0 km/h (2 Bft) 99,17 %
22.01.2016 11:40 -8,1 C 93 % 1034,3 hPa 0,0 l/m 5,1 km/h (1 Bft) O-NO 70 5 min 0,000 mm 0,8 UV-I 371 W/m -9,0 C -8,1 C 8,0 km/h (2 Bft) 99,15 %
22.01.2016 11:45 -8,1 C 93 % 1034,2 hPa 0,0 l/m 6,3 km/h (2 Bft) O-NO 69 5 min 0,000 mm 0,8 UV-I 328 W/m -9,0 C -8,1 C 11,3 km/h (2 Bft) 100,00 %
22.01.2016 11:50 -8,1 C 93 % 1034,2 hPa 0,0 l/m 7,3 km/h (2 Bft) O-NO 69 5 min 0,000 mm 0,8 UV-I 337 W/m -9,0 C -9,3 C 14,5 km/h (3 Bft) 100,00 %
22.01.2016 11:55 -8,0 C 93 % 1034,1 hPa 0,0 l/m 7,7 km/h (2 Bft) O-NO 63 5 min 0,000 mm 0,9 UV-I 339 W/m -8,9 C -9,7 C 14,5 km/h (3 Bft) 98,20 %
22.01.2016 12:00 -7,9 C 93 % 1034,1 hPa 0,0 l/m 7,2 km/h (2 Bft) NO 51 5 min 0,000 mm 0,9 UV-I 342 W/m -8,8 C -8,9 C 12,9 km/h (3 Bft) 100,00 %
22.01.2016 12:05 -7,8 C 93 % 1034,0 hPa 0,0 l/m 11,6 km/h (2 Bft) O-SO 107 5 min 0,076 mm 0,9 UV-I 344 W/m -8,7 C -13,6 C 17,7 km/h (3 Bft) 99,17 %
22.01.2016 12:10 -7,6 C 93 % 1034,0 hPa 0,0 l/m 7,3 km/h (2 Bft) NO 55 5 min 0,000 mm 0,9 UV-I 346 W/m -8,5 C -8,8 C 12,9 km/h (3 Bft) 100,00 %
22.01.2016 12:15 -7,6 C 93 % 1034,0 hPa 0,0 l/m 9,1 km/h (2 Bft) O-NO 68 5 min 0,000 mm 0,9 UV-I 345 W/m -8,5 C -10,9 C 17,7 km/h (3 Bft) 97,52 %
22.01.2016 12:20 -7,5 C 93 % 1034,0 hPa 0,0 l/m 8,9 km/h (2 Bft) O-NO 60 5 min 0,000 mm 0,9 UV-I 347 W/m -8,4 C -10,6 C 16,1 km/h (3 Bft) 97,14 %
22.01.2016 12:25 -7,4 C 93 % 1033,9 hPa 0,0 l/m 9,1 km/h (2 Bft) O-NO 71 5 min 0,000 mm 0,9 UV-I 347 W/m -8,3 C -10,7 C 14,5 km/h (3 Bft) 96,77 %
22.01.2016 12:30 -7,3 C 93 % 1033,8 hPa 0,0 l/m 9,0 km/h (2 Bft) O-NO 65 5 min 0,000 mm 0,9 UV-I 346 W/m -8,2 C -10,5 C 14,5 km/h (3 Bft) 99,15 %
22.01.2016 12:35 -7,2 C 93 % 1033,8 hPa 0,0 l/m 9,2 km/h (2 Bft) O-NO 74 5 min 0,000 mm 0,8 UV-I 347 W/m -8,1 C -10,6 C 16,1 km/h (3 Bft) 100,00 %
22.01.2016 12:40 -7,1 C 92 % 1033,8 hPa 0,0 l/m 8,2 km/h (2 Bft) O-NO 65 5 min 0,000 mm 0,8 UV-I 348 W/m -8,2 C -9,3 C 14,5 km/h (3 Bft) 98,31 %
22.01.2016 12:45 -7,0 C 92 % 1033,7 hPa 0,0 l/m 8,9 km/h (2 Bft) O-NO 64 5 min 0,000 mm 0,8 UV-I 348 W/m -8,1 C -10,0 C 14,5 km/h (3 Bft) 100,00 %
22.01.2016 12:50 -6,8 C 92 % 1033,7 hPa 0,0 l/m 8,8 km/h (2 Bft) NO 49 5 min 0,000 mm 0,8 UV-I 345 W/m -7,9 C -9,7 C 14,5 km/h (3 Bft) 99,11 %
22.01.2016 12:55 -6,7 C 91 % 1033,7 hPa 0,0 l/m 6,5 km/h (2 Bft) O-NO 77 5 min 0,000 mm 0,8 UV-I 345 W/m -7,9 C -6,8 C 11,3 km/h (2 Bft) 100,00 %
22.01.2016 13:00 -6,5 C 90 % 1033,6 hPa 0,0 l/m 6,8 km/h (2 Bft) NO 45 5 min 0,077 mm 0,8 UV-I 344 W/m -7,9 C -7,0 C 12,9 km/h (3 Bft) 100,00 %
22.01.2016 13:05 -6,3 C 90 % 1033,5 hPa 0,0 l/m 7,1 km/h (2 Bft) O-NO 69 5 min 0,000 mm 0,8 UV-I 344 W/m -7,7 C -7,2 C 12,9 km/h (3 Bft) 99,15 %
22.01.2016 13:10 -6,2 C 89 % 1033,5 hPa 0,0 l/m 6,9 km/h (2 Bft) O-NO 65 5 min 0,000 mm 0,8 UV-I 342 W/m -7,7 C -6,8 C 12,9 km/h (3 Bft) 100,00 %
22.01.2016 13:15 -5,9 C 88 % 1033,4 hPa 0,0 l/m 7,1 km/h (2 Bft) O-NO 71 5 min 0,000 mm 0,8 UV-I 339 W/m -7,6 C -6,8 C 12,9 km/h (3 Bft) 97,22 %
22.01.2016 13:20 -5,7 C 88 % 1033,4 hPa 0,0 l/m 6,6 km/h (2 Bft) O-NO 68 5 min 0,000 mm 0,8 UV-I 337 W/m -7,4 C -5,9 C 9,7 km/h (2 Bft) 97,46 %
22.01.2016 13:25 -5,6 C 87 % 1033,4 hPa 0,0 l/m 7,3 km/h (2 Bft) O-NO 61 5 min 0,000 mm 0,7 UV-I 335 W/m -7,4 C -6,7 C 11,3 km/h (2 Bft) 97,58 %
22.01.2016 13:30 -5,4 C 86 % 1033,4 hPa 0,0 l/m 5,9 km/h (2 Bft) NO 55 5 min 0,000 mm 0,7 UV-I 336 W/m -7,4 C -5,4 C 9,7 km/h (2 Bft) 98,26 %
22.01.2016 13:35 -5,3 C 86 % 1033,4 hPa 0,0 l/m 7,6 km/h (2 Bft) O-NO 60 5 min 0,000 mm 0,7 UV-I 334 W/m -7,3 C -6,7 C 14,5 km/h (3 Bft) 97,52 %
22.01.2016 13:40 -5,3 C 85 % 1033,3 hPa 0,0 l/m 8,1 km/h (2 Bft) O-NO 73 5 min 0,000 mm 0,7 UV-I 328 W/m -7,4 C -7,3 C 12,9 km/h (3 Bft) 100,00 %
22.01.2016 13:45 -5,2 C 85 % 1033,2 hPa 0,0 l/m 7,0 km/h (2 Bft) O-NO 57 5 min 0,000 mm 0,7 UV-I 322 W/m -7,3 C -5,9 C 12,9 km/h (3 Bft) 98,17 %
22.01.2016 13:50 -5,1 C 85 % 1033,1 hPa 0,0 l/m 8,5 km/h (2 Bft) O-NO 64 5 min 0,000 mm 0,7 UV-I 318 W/m -7,2 C -7,6 C 14,5 km/h (3 Bft) 98,35 %
22.01.2016 13:55 -5,0 C 85 % 1033,0 hPa 0,0 l/m 10,9 km/h (2 Bft) O-NO 67 5 min 0,000 mm 0,6 UV-I 312 W/m -7,1 C -9,8 C 16,1 km/h (3 Bft) 99,15 %
22.01.2016 14:00 -5,0 C 85 % 1033,0 hPa 0,0 l/m 8,1 km/h (2 Bft) O-NO 77 5 min 0,101 mm 0,6 UV-I 305 W/m -7,1 C -7,0 C 16,1 km/h (3 Bft) 97,39 %
22.01.2016 14:05 -4,8 C 84 % 1033,0 hPa 0,0 l/m 6,9 km/h (2 Bft) NO 54 5 min 0,000 mm 0,6 UV-I 299 W/m -7,1 C -5,4 C 14,5 km/h (3 Bft) 100,00 %
22.01.2016 14:10 -4,7 C 84 % 1033,0 hPa 0,0 l/m 8,0 km/h (2 Bft) O-NO 76 5 min 0,000 mm 0,6 UV-I 289 W/m -7,0 C -6,6 C 12,9 km/h (3 Bft) 100,00 %
22.01.2016 14:15 -4,6 C 83 % 1033,0 hPa 0,0 l/m 9,3 km/h (2 Bft) NO 41 5 min 0,000 mm 0,5 UV-I 281 W/m -7,0 C -7,8 C 14,5 km/h (3 Bft) 98,35 %
22.01.2016 14:20 -4,5 C 83 % 1033,0 hPa 0,0 l/m 8,0 km/h (2 Bft) O-NO 65 5 min 0,000 mm 0,5 UV-I 274 W/m -6,9 C -6,4 C 14,5 km/h (3 Bft) 96,49 %
22.01.2016 14:25 -4,4 C 82 % 1033,1 hPa 0,0 l/m 11,1 km/h (2 Bft) O-NO 74 5 min 0,000 mm 0,5 UV-I 267 W/m -7,0 C -9,3 C 19,3 km/h (3 Bft) 98,17 %
22.01.2016 14:30 -4,4 C 81 % 1033,2 hPa 0,0 l/m 12,5 km/h (3 Bft) O-NO 76 5 min 0,000 mm 0,5 UV-I 256 W/m -7,2 C -10,5 C 19,3 km/h (3 Bft) 97,64 %
22.01.2016 14:35 -4,3 C 80 % 1033,2 hPa 0,0 l/m 10,8 km/h (2 Bft) O-NO 59 5 min 0,000 mm 0,1 UV-I 247 W/m -7,2 C -8,9 C 17,7 km/h (3 Bft) 97,22 %
22.01.2016 14:40 -4,3 C 80 % 1033,1 hPa 0,0 l/m 10,6 km/h (2 Bft) NO 47 5 min 0,000 mm 0,0 UV-I 236 W/m -7,2 C -8,8 C 17,7 km/h (3 Bft) 100,00 %
22.01.2016 14:45 -4,3 C 79 % 1033,1 hPa 0,0 l/m 10,8 km/h (2 Bft) O-NO 61 5 min 0,000 mm 0,0 UV-I 226 W/m -7,4 C -8,9 C 19,3 km/h (3 Bft) 100,00 %
22.01.2016 14:50 -4,3 C 79 % 1033,0 hPa 0,0 l/m 14,2 km/h (3 Bft) O-NO 59 5 min 0,000 mm 0,0 UV-I 214 W/m -7,4 C -11,6 C 20,9 km/h (4 Bft) 99,17 %
22.01.2016 14:55 -4,2 C 78 % 1033,0 hPa 0,0 l/m 12,6 km/h (3 Bft) O-NO 62 5 min 0,000 mm 0,0 UV-I 203 W/m -7,4 C -10,3 C 19,3 km/h (3 Bft) 98,31 %
22.01.2016 15:00 -4,2 C 78 % 1033,0 hPa 0,0 l/m 15,3 km/h (3 Bft) NO 54 5 min 0,000 mm 0,0 UV-I 191 W/m -7,4 C -12,3 C 22,5 km/h (4 Bft) 99,10 %
22.01.2016 15:05 -4,3 C 78 % 1032,9 hPa 0,0 l/m 11,7 km/h (2 Bft) NO 53 5 min 0,076 mm 0,0 UV-I 179 W/m -7,5 C -9,7 C 17,7 km/h (3 Bft) 100,00 %
22.01.2016 15:10 -4,3 C 78 % 1032,9 hPa 0,0 l/m 11,6 km/h (2 Bft) O-NO 67 5 min 0,000 mm 0,0 UV-I 168 W/m -7,5 C -9,6 C 17,7 km/h (3 Bft) 97,80 %
22.01.2016 15:15 -4,3 C 78 % 1033,0 hPa 0,0 l/m 12,7 km/h (3 Bft) O 83 5 min 0,000 mm 0,0 UV-I 155 W/m -7,5 C -10,5 C 20,9 km/h (4 Bft) 99,22 %
22.01.2016 15:20 -4,3 C 78 % 1033,1 hPa 0,0 l/m 13,2 km/h (3 Bft) O-NO 66 5 min 0,000 mm 0,0 UV-I 142 W/m -7,5 C -10,9 C 20,9 km/h (4 Bft) 100,00 %
22.01.2016 15:25 -4,3 C 77 % 1033,0 hPa 0,0 l/m 13,8 km/h (3 Bft) O-NO 64 5 min 0,000 mm 0,0 UV-I 130 W/m -7,7 C -11,3 C 22,5 km/h (4 Bft) 99,19 %
22.01.2016 15:30 -4,4 C 78 % 1033,1 hPa 0,0 l/m 12,1 km/h (2 Bft) O-NO 57 5 min 0,000 mm 0,0 UV-I 118 W/m -7,6 C -10,1 C 17,7 km/h (3 Bft) 95,54 %
22.01.2016 15:35 -4,4 C 78 % 1033,2 hPa 0,0 l/m 11,3 km/h (2 Bft) O 83 5 min 0,000 mm 0,0 UV-I 108 W/m -7,6 C -9,5 C 17,7 km/h (3 Bft) 97,46 %
22.01.2016 15:40 -4,4 C 78 % 1033,2 hPa 0,0 l/m 9,2 km/h (2 Bft) O 82 5 min 0,000 mm 0,0 UV-I 96 W/m -7,6 C -7,5 C 14,5 km/h (3 Bft) 97,56 %
22.01.2016 15:45 -4,6 C 78 % 1033,2 hPa 0,0 l/m 7,1 km/h (2 Bft) O-NO 75 5 min 0,000 mm 0,0 UV-I 85 W/m -7,8 C -5,4 C 14,5 km/h (3 Bft) 98,21 %
22.01.2016 15:50 -4,6 C 78 % 1033,1 hPa 0,0 l/m 6,0 km/h (2 Bft) O-NO 69 5 min 0,000 mm 0,0 UV-I 74 W/m -7,8 C -4,6 C 11,3 km/h (2 Bft) 97,32 %
22.01.2016 15:55 -4,6 C 78 % 1033,0 hPa 0,0 l/m 8,2 km/h (2 Bft) O-NO 72 5 min 0,000 mm 0,0 UV-I 65 W/m -7,8 C -6,7 C 14,5 km/h (3 Bft) 97,62 %
22.01.2016 16:00 -4,7 C 78 % 1032,9 hPa 0,0 l/m 7,4 km/h (2 Bft) O-NO 70 0 min 0,051 mm 0,0 UV-I 54 W/m -7,9 C -5,9 C 12,9 km/h (3 Bft) 100,00 %
22.01.2016 16:05 -4,8 C 79 % 1032,9 hPa 0,0 l/m 7,6 km/h (2 Bft) O-NO 67 0 min 0,000 mm 0,0 UV-I 45 W/m -7,9 C -6,2 C 12,9 km/h (3 Bft) 100,00 %
22.01.2016 16:10 -4,8 C 78 % 1032,9 hPa 0,0 l/m 9,2 km/h (2 Bft) O-NO 65 0 min 0,000 mm 0,0 UV-I 36 W/m -8,0 C -8,0 C 14,5 km/h (3 Bft) 99,17 %
22.01.2016 16:15 -4,9 C 79 % 1032,9 hPa 0,0 l/m 8,4 km/h (2 Bft) O-NO 78 0 min 0,000 mm 0,0 UV-I 28 W/m -8,0 C -7,2 C 12,9 km/h (3 Bft) 100,00 %
22.01.2016 16:20 -4,9 C 79 % 1032,9 hPa 0,0 l/m 6,8 km/h (2 Bft) O-NO 65 0 min 0,000 mm 0,0 UV-I 21 W/m -8,0 C -5,4 C 11,3 km/h (2 Bft) 98,48 %
22.01.2016 16:25 -5,1 C 79 % 1032,9 hPa 0,0 l/m 5,3 km/h (1 Bft) O-NO 67 0 min 0,000 mm 0,0 UV-I 18 W/m -8,2 C -5,1 C 8,0 km/h (2 Bft) 98,18 %
22.01.2016 16:30 -5,2 C 80 % 1032,9 hPa 0,0 l/m 5,9 km/h (2 Bft) O-NO 78 0 min 0,000 mm 0,0 UV-I 15 W/m -8,1 C -5,2 C 8,0 km/h (2 Bft) 100,00 %
22.01.2016 16:35 -5,2 C 80 % 1033,0 hPa 0,0 l/m 4,7 km/h (1 Bft) O-NO 69 5 min 0,000 mm 0,0 UV-I 12 W/m -8,1 C -5,2 C 6,4 km/h (2 Bft) 99,12 %
22.01.2016 16:40 -5,3 C 80 % 1033,0 hPa 0,0 l/m 4,1 km/h (1 Bft) O-NO 67 0 min 0,000 mm 0,0 UV-I 11 W/m -8,2 C -5,3 C 6,4 km/h (2 Bft) 100,00 %
22.01.2016 16:45 -5,6 C 81 % 1033,0 hPa 0,0 l/m 3,7 km/h (1 Bft) O-NO 67 0 min 0,000 mm 0,0 UV-I 8 W/m -8,3 C -5,6 C 4,8 km/h (1 Bft) 99,19 %
22.01.2016 16:50 -5,7 C 81 % 1032,9 hPa 0,0 l/m 6,3 km/h (2 Bft) O-NO 67 0 min 0,000 mm 0,0 UV-I 6 W/m -8,4 C -5,7 C 14,5 km/h (3 Bft) 100,00 %
22.01.2016 16:55 -5,8 C 81 % 1032,9 hPa 0,0 l/m 9,5 km/h (2 Bft) O-NO 69 0 min 0,000 mm 0,0 UV-I 3 W/m -8,5 C -9,4 C 14,5 km/h (3 Bft) 99,06 %
22.01.2016 17:00 -5,8 C 81 % 1032,8 hPa 0,0 l/m 8,1 km/h (2 Bft) O 85 0 min 0,026 mm 0,0 UV-I 0 W/m -8,5 C -7,9 C 12,9 km/h (3 Bft) 99,19 %
22.01.2016 17:05 -5,9 C 82 % 1032,9 hPa 0,0 l/m 7,5 km/h (2 Bft) O-NO 78 0 min 0,000 mm 0,0 UV-I 0 W/m -8,5 C -7,3 C 11,3 km/h (2 Bft) 97,39 %
22.01.2016 17:10 -5,9 C 82 % 1033,0 hPa 0,0 l/m 6,6 km/h (2 Bft) O-NO 75 0 min 0,000 mm 0,0 UV-I 0 W/m -8,5 C -6,1 C 8,0 km/h (2 Bft) 98,11 %
22.01.2016 17:15 -6,1 C 82 % 1033,1 hPa 0,0 l/m 6,6 km/h (2 Bft) O 90 0 min 0,000 mm 0,0 UV-I 0 W/m -8,7 C -6,3 C 9,7 km/h (2 Bft) 94,81 %
22.01.2016 17:20 -6,2 C 82 % 1033,0 hPa 0,0 l/m 5,8 km/h (2 Bft) O-NO 73 0 min 0,000 mm 0,0 UV-I 0 W/m -8,8 C -6,2 C 9,7 km/h (2 Bft) 97,46 %
22.01.2016 17:25 -6,6 C 83 % 1033,1 hPa 0,0 l/m 3,7 km/h (1 Bft) O-NO 68 0 min 0,000 mm 0,0 UV-I 0 W/m -9,0 C -6,6 C 6,4 km/h (2 Bft) 97,25 %
22.01.2016 17:30 -6,7 C 83 % 1033,1 hPa 0,0 l/m 4,4 km/h (1 Bft) NO 55 0 min 0,000 mm 0,0 UV-I 0 W/m -9,1 C -6,7 C 8,0 km/h (2 Bft) 97,50 %
22.01.2016 17:35 -6,6 C 84 % 1033,1 hPa 0,0 l/m 5,3 km/h (1 Bft) NO 55 0 min 0,000 mm 0,0 UV-I 0 W/m -8,8 C -6,6 C 8,0 km/h (2 Bft) 96,52 %
22.01.2016 17:40 -6,6 C 83 % 1033,1 hPa 0,0 l/m 6,1 km/h (2 Bft) NO 41 0 min 0,000 mm 0,0 UV-I 0 W/m -9,0 C -6,6 C 11,3 km/h (2 Bft) 97,50 %
22.01.2016 17:45 -6,7 C 83 % 1033,1 hPa 0,0 l/m 4,9 km/h (1 Bft) NO 56 0 min 0,000 mm 0,0 UV-I 0 W/m -9,1 C -6,7 C 9,7 km/h (2 Bft) 98,26 %
22.01.2016 17:50 -6,9 C 83 % 1033,1 hPa 0,0 l/m 3,6 km/h (1 Bft) N-NO 33 0 min 0,000 mm 0,0 UV-I 0 W/m -9,3 C -6,9 C 4,8 km/h (1 Bft) 100,00 %
22.01.2016 17:55 -7,1 C 84 % 1033,2 hPa 0,0 l/m 4,5 km/h (1 Bft) NO 49 0 min 0,000 mm 0,0 UV-I 0 W/m -9,3 C -7,1 C 8,0 km/h (2 Bft) 99,17 %
22.01.2016 18:00 -7,0 C 84 % 1033,1 hPa 0,0 l/m 7,6 km/h (2 Bft) NO 52 0 min 0,000 mm 0,0 UV-I 0 W/m -9,2 C -8,5 C 17,7 km/h (3 Bft) 100,00 %
22.01.2016 18:05 -6,9 C 84 % 1033,2 hPa 0,0 l/m 8,8 km/h (2 Bft) O-NO 60 0 min 0,000 mm 0,0 UV-I 0 W/m -9,1 C -9,8 C 12,9 km/h (3 Bft) 100,00 %
22.01.2016 18:10 -6,9 C 84 % 1033,2 hPa 0,0 l/m 8,9 km/h (2 Bft) O-NO 69 0 min 0,000 mm 0,0 UV-I 0 W/m -9,1 C -9,9 C 14,5 km/h (3 Bft) 100,00 %
22.01.2016 18:15 -6,9 C 85 % 1033,1 hPa 0,0 l/m 9,4 km/h (2 Bft) NO 40 0 min 0,000 mm 0,0 UV-I 0 W/m -9,0 C -10,5 C 14,5 km/h (3 Bft) 99,17 %
22.01.2016 18:20 -6,8 C 85 % 1033,1 hPa 0,0 l/m 9,5 km/h (2 Bft) O-NO 62 0 min 0,000 mm 0,0 UV-I 0 W/m -8,9 C -10,4 C 16,1 km/h (3 Bft) 100,00 %
22.01.2016 18:25 -7,0 C 84 % 1033,1 hPa 0,0 l/m 8,5 km/h (2 Bft) O-NO 71 0 min 0,000 mm 0,0 UV-I 0 W/m -9,2 C -9,6 C 14,5 km/h (3 Bft) 98,26 %
22.01.2016 18:30 -7,1 C 85 % 1033,1 hPa 0,0 l/m 8,0 km/h (2 Bft) NO 51 0 min 0,000 mm 0,0 UV-I 0 W/m -9,2 C -9,1 C 12,9 km/h (3 Bft) 100,00 %
22.01.2016 18:35 -7,1 C 85 % 1033,2 hPa 0,0 l/m 7,1 km/h (2 Bft) O-NO 61 0 min 0,000 mm 0,0 UV-I 0 W/m -9,2 C -8,0 C 12,9 km/h (3 Bft) 100,00 %
22.01.2016 18:40 -7,2 C 85 % 1033,1 hPa 0,0 l/m 7,7 km/h (2 Bft) O-NO 62 0 min 0,000 mm 0,0 UV-I 0 W/m -9,3 C -8,8 C 12,9 km/h (3 Bft) 100,00 %
22.01.2016 18:45 -7,2 C 86 % 1033,0 hPa 0,0 l/m 8,5 km/h (2 Bft) NO 55 0 min 0,000 mm 0,0 UV-I 0 W/m -9,1 C -9,8 C 12,9 km/h (3 Bft) 100,00 %
22.01.2016 18:50 -7,1 C 86 % 1032,9 hPa 0,0 l/m 9,7 km/h (2 Bft) NO 52 0 min 0,000 mm 0,0 UV-I 0 W/m -9,0 C -11,0 C 16,1 km/h (3 Bft) 100,00 %
22.01.2016 18:55 -7,1 C 86 % 1033,1 hPa 0,0 l/m 7,1 km/h (2 Bft) O-NO 76 0 min 0,000 mm 0,0 UV-I 0 W/m -9,0 C -8,0 C 11,3 km/h (2 Bft) 100,00 %
22.01.2016 19:00 -7,1 C 86 % 1033,1 hPa 0,0 l/m 6,7 km/h (2 Bft) O-NO 68 0 min 0,000 mm 0,0 UV-I 0 W/m -9,0 C -7,5 C 11,3 km/h (2 Bft) 98,33 %
22.01.2016 19:05 -7,1 C 86 % 1033,1 hPa 0,0 l/m 6,0 km/h (2 Bft) O 96 0 min 0,000 mm 0,0 UV-I 0 W/m -9,0 C -7,1 C 12,9 km/h (3 Bft) 99,15 %
22.01.2016 19:10 -6,9 C 86 % 1033,1 hPa 0,0 l/m 5,7 km/h (1 Bft) O-NO 72 0 min 0,000 mm 0,0 UV-I 0 W/m -8,8 C -6,9 C 14,5 km/h (3 Bft) 100,00 %
22.01.2016 19:15 -7,2 C 85 % 1033,2 hPa 0,0 l/m 4,7 km/h (1 Bft) NO 55 0 min 0,000 mm 0,0 UV-I 0 W/m -9,3 C -7,2 C 8,0 km/h (2 Bft) 97,50 %
22.01.2016 19:20 -7,3 C 86 % 1033,2 hPa 0,0 l/m 5,1 km/h (1 Bft) NO 50 0 min 0,000 mm 0,0 UV-I 0 W/m -9,2 C -7,3 C 8,0 km/h (2 Bft) 95,65 %
22.01.2016 19:25 -7,4 C 86 % 1033,2 hPa 0,0 l/m 5,6 km/h (1 Bft) O-NO 74 0 min 0,000 mm 0,0 UV-I 0 W/m -9,3 C -7,4 C 8,0 km/h (2 Bft) 96,75 %
22.01.2016 19:30 -7,6 C 86 % 1033,2 hPa 0,0 l/m 5,8 km/h (2 Bft) O-NO 63 0 min 0,000 mm 0,0 UV-I 0 W/m -9,5 C -7,6 C 8,0 km/h (2 Bft) 96,43 %
22.01.2016 19:35 -7,6 C 87 % 1033,1 hPa 0,0 l/m 7,1 km/h (2 Bft) NO 46 0 min 0,000 mm 0,0 UV-I 0 W/m -9,4 C -8,5 C 11,3 km/h (2 Bft) 96,69 %
22.01.2016 19:40 -7,5 C 87 % 1033,1 hPa 0,0 l/m 6,7 km/h (2 Bft) O-NO 61 0 min 0,000 mm 0,0 UV-I 0 W/m -9,3 C -7,9 C 9,7 km/h (2 Bft) 97,37 %
22.01.2016 19:45 -7,7 C 87 % 1033,0 hPa 0,0 l/m 5,3 km/h (1 Bft) NO 51 0 min 0,000 mm 0,0 UV-I 0 W/m -9,5 C -7,7 C 8,0 km/h (2 Bft) 95,54 %
22.01.2016 19:50 -7,7 C 87 % 1033,0 hPa 0,0 l/m 4,7 km/h (1 Bft) O-NO 59 0 min 0,000 mm 0,0 UV-I 0 W/m -9,5 C -7,7 C 8,0 km/h (2 Bft) 97,52 %
22.01.2016 19:55 -7,8 C 87 % 1032,9 hPa 0,0 l/m 4,2 km/h (1 Bft) O-NO 60 0 min 0,000 mm 0,0 UV-I 0 W/m -9,6 C -7,8 C 6,4 km/h (2 Bft) 99,19 %
22.01.2016 20:00 -7,9 C 88 % 1033,0 hPa 0,0 l/m 3,2 km/h (1 Bft) O-NO 68 0 min 0,000 mm 0,0 UV-I 0 W/m -9,5 C -7,9 C 4,8 km/h (1 Bft) 99,15 %
22.01.2016 20:05 -7,9 C 88 % 1033,0 hPa 0,0 l/m 2,9 km/h (1 Bft) O-NO 68 0 min 0,000 mm 0,0 UV-I 0 W/m -9,5 C -7,9 C 4,8 km/h (1 Bft) 100,00 %
22.01.2016 20:10 -7,9 C 88 % 1032,9 hPa 0,0 l/m 2,2 km/h (1 Bft) O-NO 68 0 min 0,000 mm 0,0 UV-I 0 W/m -9,5 C -7,9 C 3,2 km/h (1 Bft) 99,13 %
22.01.2016 20:15 -7,9 C 89 % 1032,9 hPa 0,0 l/m 2,4 km/h (1 Bft) O-NO 68 0 min 0,000 mm 0,0 UV-I 0 W/m -9,4 C -7,9 C 3,2 km/h (1 Bft) 98,35 %
22.01.2016 20:20 -8,1 C 88 % 1033,0 hPa 0,0 l/m 1,7 km/h (1 Bft) O-NO 68 0 min 0,000 mm 0,0 UV-I 0 W/m -9,7 C -8,1 C 4,8 km/h (1 Bft) 100,00 %
22.01.2016 20:25 -8,4 C 89 % 1033,1 hPa 0,0 l/m 1,2 km/h (1 Bft) O-NO 68 0 min 0,000 mm 0,0 UV-I 0 W/m -9,9 C -8,4 C 3,2 km/h (1 Bft) 100,00 %
22.01.2016 20:30 -9,6 C 86 % 1033,1 hPa 0,0 l/m 0,0 km/h (0 Bft) O-NO 68 0 min 0,000 mm 0,0 UV-I 0 W/m -11,5 C -9,6 C 0,0 km/h (0 Bft) 100,00 %
22.01.2016 20:35 -10,4 C 88 % 1033,1 hPa 0,0 l/m 0,3 km/h (0 Bft) O-NO 68 0 min 0,000 mm 0,0 UV-I 0 W/m -12,0 C -10,4 C 3,2 km/h (1 Bft) 99,28 %
22.01.2016 20:40 -10,8 C 89 % 1033,1 hPa 0,0 l/m 2,0 km/h (1 Bft) O-SO 114 0 min 0,000 mm 0,0 UV-I 0 W/m -12,2 C -10,8 C 3,2 km/h (1 Bft) 99,17 %
22.01.2016 20:45 -10,7 C 92 % 1033,0 hPa 0,0 l/m 0,2 km/h (0 Bft) O-SO 114 0 min 0,000 mm 0,0 UV-I 0 W/m -11,7 C -10,7 C 1,6 km/h (1 Bft) 98,15 %
22.01.2016 20:50 -10,4 C 92 % 1033,0 hPa 0,0 l/m 0,0 km/h (0 Bft) O-SO 114 0 min 0,000 mm 0,0 UV-I 0 W/m -11,4 C -10,4 C 1,6 km/h (1 Bft) 100,00 %
22.01.2016 20:55 -10,4 C 91 % 1033,1 hPa 0,0 l/m 0,4 km/h (0 Bft) O-SO 114 0 min 0,000 mm 0,0 UV-I 0 W/m -11,6 C -10,4 C 1,6 km/h (1 Bft) 87,60 %
22.01.2016 21:00 -10,7 C 91 % 1033,1 hPa 0,0 l/m 0,1 km/h (0 Bft) O-SO 114 0 min 0,000 mm 0,0 UV-I 0 W/m -11,9 C -10,7 C 1,6 km/h (1 Bft) 90,43 %
22.01.2016 21:05 -11,0 C 91 % 1033,1 hPa 0,0 l/m 0,8 km/h (0 Bft) O-SO 114 0 min 0,000 mm 0,0 UV-I 0 W/m -12,2 C -11,0 C 1,6 km/h (1 Bft) 100,00 %
22.01.2016 21:10 -11,1 C 91 % 1033,1 hPa 0,0 l/m 0,8 km/h (0 Bft) O-SO 114 0 min 0,000 mm 0,0 UV-I 0 W/m -12,3 C -11,1 C 1,6 km/h (1 Bft) 100,00 %
22.01.2016 21:15 -11,0 C 92 % 1033,2 hPa 0,0 l/m 1,1 km/h (1 Bft) O-SO 114 0 min 0,000 mm 0,0 UV-I 0 W/m -12,0 C -11,0 C 3,2 km/h (1 Bft) 99,08 %
22.01.2016 21:20 -11,2 C 91 % 1033,3 hPa 0,0 l/m 3,1 km/h (1 Bft) S 188 0 min 0,000 mm 0,0 UV-I 0 W/m -12,4 C -11,2 C 6,4 km/h (2 Bft) 100,00 %
22.01.2016 21:25 -11,7 C 90 % 1033,2 hPa 0,0 l/m 3,3 km/h (1 Bft) S 188 0 min 0,000 mm 0,0 UV-I 0 W/m -13,0 C -11,7 C 4,8 km/h (1 Bft) 100,00 %
22.01.2016 21:30 -11,7 C 91 % 1033,3 hPa 0,0 l/m 2,6 km/h (1 Bft) S 188 0 min 0,000 mm 0,0 UV-I 0 W/m -12,9 C -11,7 C 4,8 km/h (1 Bft) 99,17 %
22.01.2016 21:35 -11,6 C 92 % 1033,2 hPa 0,0 l/m 1,9 km/h (1 Bft) S 188 0 min 0,000 mm 0,0 UV-I 0 W/m -12,6 C -11,6 C 3,2 km/h (1 Bft) 98,31 %
22.01.2016 21:40 -11,6 C 92 % 1033,1 hPa 0,0 l/m 2,0 km/h (1 Bft) S 188 0 min 0,000 mm 0,0 UV-I 0 W/m -12,6 C -11,6 C 3,2 km/h (1 Bft) 97,30 %
22.01.2016 21:45 -11,4 C 92 % 1033,1 hPa 0,0 l/m 1,5 km/h (1 Bft) S 188 0 min 0,000 mm 0,0 UV-I 0 W/m -12,4 C -11,4 C 3,2 km/h (1 Bft) 96,69 %
22.01.2016 21:50 -11,6 C 91 % 1033,2 hPa 0,0 l/m 2,1 km/h (1 Bft) S 188 0 min 0,000 mm 0,0 UV-I 0 W/m -12,8 C -11,6 C 4,8 km/h (1 Bft) 96,75 %
22.01.2016 21:55 -12,3 C 89 % 1033,1 hPa 0,0 l/m 3,7 km/h (1 Bft) S 188 0 min 0,000 mm 0,0 UV-I 0 W/m -13,7 C -12,3 C 4,8 km/h (1 Bft) 98,11 %
22.01.2016 22:00 -12,3 C 91 % 1033,1 hPa 0,0 l/m 3,7 km/h (1 Bft) S 188 0 min 0,000 mm 0,0 UV-I 0 W/m -13,5 C -12,3 C 6,4 km/h (2 Bft) 95,04 %
22.01.2016 22:05 -12,1 C 92 % 1033,0 hPa 0,0 l/m 3,1 km/h (1 Bft) S 188 0 min 0,000 mm 0,0 UV-I 0 W/m -13,1 C -12,1 C 4,8 km/h (1 Bft) 95,73 %
22.01.2016 22:10 -11,9 C 92 % 1033,2 hPa 0,0 l/m 2,8 km/h (1 Bft) S 188 0 min 0,000 mm 0,0 UV-I 0 W/m -12,9 C -11,9 C 4,8 km/h (1 Bft) 96,77 %
22.01.2016 22:15 -12,1 C 91 % 1033,2 hPa 0,0 l/m 4,5 km/h (1 Bft) S-SW 196 0 min 0,000 mm 0,0 UV-I 0 W/m -13,3 C -12,1 C 4,8 km/h (1 Bft) 98,31 %
22.01.2016 22:20 -12,3 C 91 % 1033,2 hPa 0,0 l/m 4,1 km/h (1 Bft) S-SW 196 0 min 0,000 mm 0,0 UV-I 0 W/m -13,5 C -12,3 C 4,8 km/h (1 Bft) 97,30 %
22.01.2016 22:25 -12,2 C 92 % 1033,1 hPa 0,0 l/m 3,8 km/h (1 Bft) S-SW 196 0 min 0,000 mm 0,0 UV-I 0 W/m -13,2 C -12,2 C 4,8 km/h (1 Bft) 99,13 %
22.01.2016 22:30 -12,1 C 92 % 1033,1 hPa 0,0 l/m 2,6 km/h (1 Bft) S-SW 196 0 min 0,000 mm 0,0 UV-I 0 W/m -13,1 C -12,1 C 4,8 km/h (1 Bft) 97,56 %
22.01.2016 22:35 -12,1 C 92 % 1033,2 hPa 0,0 l/m 3,1 km/h (1 Bft) S-SW 196 0 min 0,000 mm 0,0 UV-I 0 W/m -13,1 C -12,1 C 4,8 km/h (1 Bft) 99,15 %
22.01.2016 22:40 -12,1 C 91 % 1033,1 hPa 0,0 l/m 3,1 km/h (1 Bft) S-SW 196 0 min 0,000 mm 0,0 UV-I 0 W/m -13,3 C -12,1 C 4,8 km/h (1 Bft) 98,31 %
22.01.2016 22:45 -12,2 C 91 % 1033,1 hPa 0,0 l/m 2,1 km/h (1 Bft) S-SW 196 0 min 0,000 mm 0,0 UV-I 0 W/m -13,4 C -12,2 C 3,2 km/h (1 Bft) 99,05 %
22.01.2016 22:50 -11,9 C 92 % 1032,9 hPa 0,0 l/m 0,0 km/h (0 Bft) S-SW 196 0 min 0,000 mm 0,0 UV-I 0 W/m -12,9 C -11,9 C 1,6 km/h (1 Bft) 100,00 %
22.01.2016 22:55 -11,9 C 92 % 1032,9 hPa 0,0 l/m 1,1 km/h (1 Bft) S-SW 196 0 min 0,000 mm 0,0 UV-I 0 W/m -12,9 C -11,9 C 4,8 km/h (1 Bft) 98,36 %
22.01.2016 23:00 -12,4 C 90 % 1032,9 hPa 0,0 l/m 4,2 km/h (1 Bft) S-SW 196 0 min 0,000 mm 0,0 UV-I 0 W/m -13,7 C -12,4 C 6,4 km/h (2 Bft) 100,00 %
22.01.2016 23:05 -12,7 C 91 % 1032,8 hPa 0,0 l/m 3,6 km/h (1 Bft) S-SW 194 0 min 0,000 mm 0,0 UV-I 0 W/m -13,9 C -12,7 C 4,8 km/h (1 Bft) 98,35 %
22.01.2016 23:10 -12,4 C 91 % 1032,8 hPa 0,0 l/m 2,5 km/h (1 Bft) S-SW 194 0 min 0,000 mm 0,0 UV-I 0 W/m -13,6 C -12,4 C 4,8 km/h (1 Bft) 100,00 %
22.01.2016 23:15 -12,3 C 91 % 1032,9 hPa 0,0 l/m 2,5 km/h (1 Bft) S-SW 194 0 min 0,000 mm 0,0 UV-I 0 W/m -13,5 C -12,3 C 4,8 km/h (1 Bft) 98,33 %
22.01.2016 23:20 -12,5 C 90 % 1032,9 hPa 0,0 l/m 1,9 km/h (1 Bft) S-SW 194 0 min 0,000 mm 0,0 UV-I 0 W/m -13,8 C -12,5 C 3,2 km/h (1 Bft) 99,15 %
22.01.2016 23:25 -12,6 C 91 % 1033,0 hPa 0,0 l/m 2,3 km/h (1 Bft) S-SW 194 0 min 0,000 mm 0,0 UV-I 0 W/m -13,8 C -12,6 C 3,2 km/h (1 Bft) 99,19 %
22.01.2016 23:30 -12,9 C 90 % 1033,0 hPa 0,0 l/m 2,8 km/h (1 Bft) S-SW 194 0 min 0,000 mm 0,0 UV-I 0 W/m -14,2 C -12,9 C 4,8 km/h (1 Bft) 99,08 %
22.01.2016 23:35 -12,9 C 91 % 1032,8 hPa 0,0 l/m 2,6 km/h (1 Bft) S-SW 194 0 min 0,000 mm 0,0 UV-I 0 W/m -14,1 C -12,9 C 3,2 km/h (1 Bft) 99,17 %
22.01.2016 23:40 -12,8 C 91 % 1032,9 hPa 0,0 l/m 1,9 km/h (1 Bft) S-SW 194 0 min 0,000 mm 0,0 UV-I 0 W/m -14,0 C -12,8 C 3,2 km/h (1 Bft) 100,00 %
22.01.2016 23:45 -12,8 C 91 % 1032,8 hPa 0,0 l/m 2,6 km/h (1 Bft) S-SW 194 0 min 0,000 mm 0,0 UV-I 0 W/m -14,0 C -12,8 C 4,8 km/h (1 Bft) 98,26 %
22.01.2016 23:50 -12,8 C 91 % 1032,8 hPa 0,0 l/m 2,6 km/h (1 Bft) S-SW 194 0 min 0,000 mm 0,0 UV-I 0 W/m -14,0 C -12,8 C 4,8 km/h (1 Bft) 99,21 %
22.01.2016 23:55 -12,7 C 91 % 1032,9 hPa 0,0 l/m 2,3 km/h (1 Bft) S-SW 194 0 min 0,000 mm 0,0 UV-I 0 W/m -13,9 C -12,7 C 3,2 km/h (1 Bft) 100,00 %
_ Min-Zeit 04:30 15:25 01:10 - 06:10 - - - - - - 04:30 04:30 06:25 07:35
Minimum _ -14,2 C 77 % 1031,3 hPa - 0,0 km/h (0 Bft) - - - - - - -15,6 C -14,2 C 0,0 km/h (0 Bft) 81,36 %
_ Max-Zeit 14:40 00:00 10:30 00:00 15:00 - - 09:30 14:00 11:55 11:30 14:20 15:50 15:00 01:15
Maximum _ -4,2 C 94 % 1034,7 hPa 0,0 l/m 15,3 km/h
NO (3 Bft)
- - 5 min 0,101 mm 0,9 UV-I 393 W/m -6,9 C -4,6 C 22,5 km/h
O-NO (4 Bft)
100,00 %
Durchschnitt _ -9,8 C 89 % 1033,0 hPa #0,0 l/m 3,8 km/h (1 Bft) O-NO - #6:35 h #0,483 mm 0,7 UV-I 208 W/m -11,3 C -10,5 C 6,6 km/h (2 Bft) 98,41 %